Theta_e
323 324 326 327 326 325 324 325 328 336 345 343 343 343 342 341 340 337 334 335 338 338
321 322 325 327 328 329 331 331 328 329 335 340 340 338 343 343 341 339 335 331 335 339
319 321 324 327 327 327 329 330 332 332 332 332 334 340 341 341 342 341 341 340 341 343
313 316 320 320 322 325 326 330 331 332 333 333 332 331 337 344 343 342 342 343 344 345
315 315 314 315 319 322 322 326 328 329 330 331 332 333 329 334 346 345 343 344 344 345
308 310 309 312 315 318 321 321 322 325 326 327 330 333 335 331 339 345 346 346 345 345
306 307 308 310 310 311 314 316 318 320 323 327 328 328 333 336 332 341 347 347 345 342
309 310 309 309 309 311 312 312 316 317 318 321 325 328 329 333 335 335 341 344 345 344
309 309 308 308 309 309 310 311 313 314 314 317 323 316 313 319 332 337 342 342 342 345
310 310 309 309 308 308 308 308 308 311 313 315 320 311 310 313 325 335 341 343 342 342
310 309 308 307 306 305 305 304 306 307 310 312 319 310 308 310 324 330 341 341 341 338
310 307 306 304 303 303 303 303 305 306 307 309 316 309 307 311 326 329 336 340 340 336
309 307 304 304 303 303 303 305 306 307 311 312 317 312 307 311 326 329 335 337 334 318
306 305 305 305 305 304 305 305 305 306 310 316 318 321 308 308 322 332 334 335 332 329
Wind_Speed
8 4 4 5 4 3 4 4 5 5 7 11 10 11 12 10 11 11 8 10 11 6
6 5 5 7 6 4 6 4 6 7 6 6 8 11 12 11 14 10 11 16 9 9
6 6 6 5 5 5 5 3 5 6 6 5 7 8 10 12 11 12 12 9 10 11
5 5 4 4 4 5 4 5 4 5 7 8 10 9 9 11 14 14 12 11 11 13
4 3 3 3 4 5 6 6 6 6 8 9 11 9 9 12 11 13 14 14 13 15
6 5 2 4 6 5 6 7 5 8 10 11 11 14 13 10 13 13 12 12 14 15
8 7 6 4 4 5 7 12 12 12 13 13 12 14 16 14 13 14 13 13 14 12
9 8 8 8 7 7 6 9 13 15 15 15 13 11 14 15 16 15 15 11 12 12
8 8 8 8 8 8 8 9 11 13 15 18 13 14 16 15 17 17 12 12 12 12
8 10 10 9 9 9 8 7 7 12 15 18 18 17 17 19 15 16 14 14 12 10
8 11 10 10 8 7 6 7 8 13 16 17 16 16 17 19 16 15 16 15 14 11
11 9 8 8 8 7 6 8 10 12 16 19 18 18 19 17 14 15 18 13 11 12
15 11 8 8 8 7 6 11 11 14 15 18 17 20 19 17 10 14 12 10 9 16
5 7 7 7 6 8 10 12 14 16 15 16 15 17 17 18 13 12 11 9 8 8
Wind_Direction
244 229 217 236 269 248 228 231 261 259 219 228 228 224 222 212 212 218 217 228 225 200
221 224 236 230 215 200 234 216 236 233 221 231 218 229 222 216 214 211 225 240 241 225
226 250 261 275 278 287 294 287 287 299 278 251 251 257 223 226 216 209 229 237 232 233
230 236 246 250 250 262 286 293 284 275 277 271 253 243 243 233 223 208 223 221 224 233
212 273 273 284 282 267 252 246 240 247 262 271 279 260 233 247 232 211 220 227 228 233
182 160 217 307 323 317 300 286 276 271 266 268 271 278 265 241 253 240 226 223 214 224
188 187 195 213 262 288 305 303 295 286 282 273 268 270 282 270 247 248 238 223 211 206
187 187 189 204 217 233 245 272 284 284 282 280 272 271 273 269 260 247 243 212 208 204
194 193 193 200 211 219 235 253 266 275 281 280 276 265 265 272 266 244 231 219 219 208
202 205 208 212 211 212 217 225 253 270 279 273 268 259 263 269 270 257 233 221 222 198
219 216 207 202 211 217 201 221 241 265 271 275 275 255 259 267 272 260 231 220 208 184
233 213 198 202 207 206 208 232 250 258 265 264 269 261 258 261 269 254 236 220 178 171
245 220 200 206 216 213 216 246 255 257 255 260 262 258 252 256 258 250 233 207 166 164
217 224 216 214 211 220 234 252 257 256 254 255 252 259 257 253 242 240 222 176 163 151